Vorticity
5 2 4 3 2 3 4 3 2 2 4 3 3 5 2 3 4 6 5 5 4 4 5 5 5 5 5 6 7 8 8 6 4 4 3 4 4 2 4 4 6 5 6
2 4 2 -0 3 2 3 4 3 1 3 3 3 4 5 3 4 6 6 6 4 4 4 4 5 6 6 6 6 7 8 8 7 5 4 5 3 2 3 5 7 5 6
23 14 8 2 0 3 3 4 4 1 3 4 3 4 6 3 4 6 6 5 4 3 3 2 4 6 5 6 6 7 7 7 6 5 6 5 2 3 3 5 7 6 5
16 34 1 7 4 1 2 4 4 3 2 3 3 3 6 4 3 4 6 5 4 3 3 2 2 5 7 6 6 7 7 6 6 6 5 3 2 3 3 4 6 5 5
1 26 32 4 4 3 4 3 5 4 2 2 2 4 6 5 3 4 4 4 4 2 4 2 2 4 6 6 5 6 6 6 6 6 4 3 2 3 3 5 6 5 5
4 -1 34 7 5 3 2 5 3 5 3 2 2 3 5 6 3 3 3 4 4 3 3 3 3 3 6 5 5 5 6 7 7 6 4 3 2 2 4 4 5 5 4
-1 -1 12 32 2 4 2 3 3 3 4 3 2 2 5 5 4 4 4 3 4 4 4 3 3 3 4 5 5 6 6 7 7 6 5 4 3 3 4 4 4 5 4
2 3 -1 15 29 2 1 2 2 4 4 4 3 2 4 4 6 4 3 4 4 5 4 3 4 3 3 4 5 5 6 6 6 6 5 4 3 3 3 4 3 4 4
3 1 1 3 32 21 2 1 3 1 6 3 3 2 4 3 5 5 5 4 5 5 4 4 4 4 4 3 4 5 5 6 5 6 5 5 4 4 3 4 4 3 3
10 15 4 3 2 48 8 3 1 2 4 5 3 3 3 3 3 7 4 4 4 5 5 4 4 5 4 3 4 2 3 4 4 5 5 4 4 4 4 4 4 3 3
0 13 21 9 5 -0 44 4 2 0 3 4 3 3 2 2 4 6 6 3 3 4 5 4 4 5 5 4 4 4 5 4 6 7 6 5 5 4 4 4 4 4 3
-13 8 -1 25 0 4 26 16 3 2 1 5 4 3 3 2 4 4 4 4 3 3 4 4 4 5 5 5 6 5 5 3 4 9 5 6 6 5 4 4 4 4 3
-0 9 -24 -15 -2 3 13 29 0 6 3 2 3 3 4 2 3 5 5 5 4 3 3 5 5 5 6 5 6 7 4 1 4 7 8 5 5 5 5 5 4 3 3
-0 -3 -1 3 -7 -27 16 49 0 26 5 2 3 3 3 3 2 5 4 4 5 4 4 4 5 4 5 5 6 6 4 1 3 6 7 7 6 5 5 4 5 4 3
3 -2 2 5 2 -2 18 29 27 1 3 2 2 2 1 6 5 4 3 4 3 4 4 5 5 4 5 5 6 5 5 3 2 4 5 7 6 6 5 4 4 4 4
4 3 -1 10 8 6 1 40 94 28 -14 -6 -1 -2 -2 23 3 3 3 4 4 3 3 4 4 4 5 4 5 7 8 2 -8 5 4 7 6 6 5 5 4 4 4
10 9 5 5 8 9 4 9 25 -5 6 -20 -2 -1 1 4 3 3 3 3 3 4 4 4 4 3 4 4 5 8 -5 9 10 6 5 6 6 6 5 4 4 4 4
11 9 3 3 12 16 18 3 84 31 -1 9 4 10 2 5 2 2 2 3 4 4 5 4 4 4 4 6 7 11 -8 9 8 -0 4 6 7 6 6 7 6 6 5
9 2 2 5 11 27 24 7 -49 8 -11 28 21 8 7 3 3 3 3 2 2 3 4 4 3 5 5 7 4 11 -3 3 7 7 1 5 6 7 5 7 7 6 6
0 12 41 22 36 23 14 37 -27 22 34 7 33 -11 -1 5 8 4 3 4 4 3 5 4 3 5 9 -4 10 13 11 8 -3 -10 15 4 6 7 4 4 7 7 7
46 31 5 27 28 23 7 40 47 -11 -14 7 49 1 -9 -12 2 2 2 3 5 1 2 2 4 5 7 1 -4 4 13 11 12 11 0 2 7 12 19 12 7 9 6
12 -4 6 0 -3 51 41 24 14 53 32 1 9 58 1 -0 8 3 8 5 1 3 4 3 -2 21 23 18 2 6 10 -8 24 20 13 13 11 5 -1 -2 7 -2 3
10 21 5 20 -11 42 -29 29 29 -1 18 4 18 6 2 41 53 20 -0 3 -2 15 19 37 11 37 17 36 21 12 4 20 2 -1 7 16 7 -2 1 6 2 3 10
31 15 5 32 24 42 -8 8 -10 3 -8 17 18 10 1 19 6 12 25 31 25 34 14 9 -0 17 -1 -18 7 19 13 3 -14 -0 -4 -2 14 -7 1 18 35 28 32
28 31 16 26 8 38 -7 -54 16 21 11 -18 0 -3 -7 -0 11 -14 17 28 -30 2 -6 5 16 11 29 -15 42 -21 5 6 16 6 6 8 11 27 29 17 27 4 2
14 -8 10 30 -12 18 46 -15 2 2 9 50 20 -5 10 26 7 1 40 4 -0 22 7 23 22 4 21 29 19 9 3 -3 5 17 13 10 48 22 8 5 2 3 2
Height
5865 5866 5869 5871 5874 5877 5880 5882 5883 5885 5885 5886 5887 5888 5889 5890 5890 5891 5891 5892 5891 5891 5891 5891 5891 5891 5890 5890 5890 5889 5890 5890 5890 5890 5890 5889 5889 5889 5888 5887 5886 5885 5884
5859 5863 5864 5867 5869 5872 5876 5879 5881 5883 5884 5884 5885 5887 5887 5888 5888 5889 5889 5890 5890 5890 5890 5890 5891 5891 5890 5890 5889 5889 5889 5889 5889 5889 5888 5888 5888 5888 5887 5886 5885 5884 5883
5850 5858 5860 5863 5865 5867 5871 5874 5877 5880 5881 5882 5884 5884 5885 5886 5886 5887 5887 5888 5888 5888 5889 5889 5890 5890 5889 5889 5889 5889 5888 5888 5888 5888 5887 5887 5887 5887 5886 5885 5884 5883 5882
5845 5849 5853 5857 5861 5864 5866 5870 5873 5875 5877 5879 5881 5882 5882 5883 5884 5884 5885 5886 5886 5886 5887 5887 5888 5888 5888 5888 5888 5888 5888 5887 5887 5887 5887 5886 5886 5885 5885 5884 5883 5882 5881
5841 5843 5846 5851 5855 5859 5862 5865 5868 5871 5873 5875 5877 5879 5880 5881 5881 5883 5883 5884 5885 5885 5885 5885 5885 5886 5886 5887 5887 5887 5887 5886 5886 5886 5886 5886 5885 5884 5883 5883 5882 5880 5879
5837 5839 5841 5843 5847 5852 5855 5860 5863 5866 5868 5870 5872 5875 5877 5878 5879 5880 5880 5881 5882 5883 5884 5884 5884 5884 5884 5884 5885 5885 5885 5885 5885 5884 5884 5884 5884 5883 5882 5881 5880 5879 5877
5830 5831 5835 5837 5840 5844 5848 5852 5857 5861 5863 5865 5868 5870 5872 5875 5876 5877 5877 5879 5880 5881 5882 5882 5883 5882 5882 5882 5883 5883 5883 5883 5883 5883 5882 5883 5883 5882 5881 5880 5878 5877 5876
5821 5825 5830 5832 5834 5838 5843 5845 5850 5855 5859 5861 5863 5865 5867 5871 5873 5874 5875 5877 5878 5879 5880 5880 5880 5880 5881 5881 5881 5881 5880 5880 5880 5880 5880 5880 5880 5879 5879 5878 5877 5876 5875
5813 5817 5822 5825 5828 5832 5837 5841 5843 5847 5852 5856 5858 5860 5863 5866 5870 5870 5871 5873 5875 5876 5876 5877 5878 5878 5878 5878 5879 5879 5878 5878 5878 5878 5878 5878 5877 5877 5876 5876 5875 5874 5873
5802 5807 5812 5817 5820 5825 5828 5834 5837 5841 5845 5849 5852 5855 5858 5861 5865 5867 5868 5869 5871 5872 5872 5873 5874 5875 5875 5875 5876 5876 5876 5876 5875 5875 5875 5875 5874 5874 5874 5873 5873 5872 5870
5794 5796 5800 5806 5812 5817 5822 5827 5832 5835 5838 5842 5846 5848 5852 5856 5858 5862 5864 5865 5866 5868 5869 5870 5870 5870 5872 5872 5872 5872 5872 5872 5872 5872 5871 5871 5871 5871 5871 5870 5870 5868 5867
5786 5791 5793 5798 5801 5806 5811 5817 5823 5828 5832 5835 5839 5842 5846 5850 5852 5856 5858 5860 5861 5862 5864 5866 5866 5865 5867 5868 5868 5868 5869 5869 5868 5869 5868 5867 5867 5867 5866 5866 5866 5865 5864
5775 5781 5785 5789 5794 5797 5802 5807 5812 5818 5825 5829 5832 5834 5839 5844 5847 5850 5853 5854 5855 5856 5859 5860 5862 5862 5861 5862 5863 5864 5864 5864 5864 5865 5865 5864 5863 5863 5862 5862 5861 5860 5860
5764 5769 5775 5779 5784 5789 5793 5796 5803 5807 5814 5820 5824 5828 5831 5836 5843 5844 5846 5848 5850 5851 5852 5854 5856 5857 5857 5857 5858 5858 5860 5859 5860 5860 5860 5860 5859 5858 5858 5856 5856 5856 5855
5750 5759 5764 5768 5771 5778 5782 5785 5791 5798 5804 5810 5815 5822 5825 5829 5834 5837 5838 5841 5843 5844 5846 5847 5849 5851 5851 5851 5852 5853 5854 5854 5854 5854 5855 5855 5854 5853 5853 5852 5851 5851 5850
5736 5744 5752 5756 5762 5768 5772 5775 5773 5784 5794 5800 5806 5814 5824 5821 5826 5829 5832 5834 5835 5838 5839 5842 5843 5845 5846 5846 5846 5848 5848 5850 5850 5850 5849 5850 5849 5848 5848 5847 5846 5845 5843
5723 5731 5736 5744 5753 5758 5762 5767 5770 5773 5783 5787 5795 5802 5810 5816 5818 5820 5823 5825 5829 5831 5833 5835 5837 5838 5840 5841 5841 5841 5842 5843 5844 5844 5844 5843 5843 5843 5842 5841 5840 5839 5838
5709 5716 5724 5731 5742 5748 5753 5757 5759 5764 5769 5778 5784 5793 5803 5806 5808 5810 5814 5817 5821 5823 5826 5828 5831 5831 5833 5834 5836 5835 5835 5836 5836 5836 5837 5837 5838 5836 5835 5834 5832 5832 5830
5698 5702 5712 5719 5726 5732 5740 5748 5749 5758 5767 5770 5774 5784 5792 5795 5799 5802 5805 5809 5813 5816 5819 5822 5823 5824 5826 5826 5827 5828 5827 5828 5828 5828 5828 5831 5831 5828 5827 5826 5825 5823 5822
5684 5693 5701 5707 5710 5717 5727 5733 5746 5752 5755 5762 5764 5770 5778 5784 5790 5794 5798 5803 5807 5809 5812 5813 5815 5815 5817 5817 5818 5819 5820 5819 5820 5819 5820 5822 5821 5821 5819 5818 5816 5814 5813
5674 5686 5692 5696 5703 5707 5717 5728 5737 5744 5751 5753 5756 5762 5769 5776 5781 5785 5790 5794 5797 5799 5801 5803 5805 5806 5806 5808 5809 5809 5811 5811 5811 5810 5812 5811 5811 5810 5810 5809 5808 5807 5805
5667 5677 5685 5692 5695 5699 5711 5724 5732 5741 5745 5748 5751 5755 5760 5766 5770 5774 5778 5783 5785 5788 5791 5792 5793 5794 5794 5795 5796 5800 5802 5803 5802 5801 5803 5803 5801 5800 5801 5801 5799 5799 5798
5662 5670 5679 5682 5691 5696 5708 5716 5722 5731 5736 5739 5745 5751 5756 5760 5759 5762 5767 5771 5775 5777 5781 5783 5784 5786 5788 5786 5787 5789 5792 5795 5793 5794 5794 5795 5793 5792 5792 5791 5790 5790 5789
5657 5664 5674 5678 5684 5691 5701 5710 5717 5724 5732 5736 5741 5746 5751 5754 5755 5757 5758 5762 5763 5765 5770 5774 5776 5779 5782 5782 5784 5783 5783 5784 5786 5785 5785 5786 5785 5784 5784 5784 5783 5783 5781
5652 5663 5669 5674 5682 5688 5698 5708 5716 5721 5728 5732 5735 5740 5744 5747 5752 5752 5754 5757 5760 5762 5764 5767 5770 5772 5772 5774 5775 5775 5775 5775 5776 5774 5774 5774 5774 5775 5775 5775 5776 5776 5775
5653 5661 5666 5673 5681 5686 5695 5705 5713 5718 5722 5726 5731 5734 5738 5741 5744 5746 5750 5753 5754 5756 5759 5761 5761 5762 5761 5760 5762 5764 5766 5766 5766 5766 5765 5766 5767 5766 5767 5767 5768 5768 5766